Theta_e
334 335 332 331 330 333 335 337 340 340 340 340 339 338 337 335 334 331 330 328 327 326
329 332 330 329 332 333 336 338 340 341 339 339 338 337 337 335 333 331 330 329 327 326
327 330 329 330 332 334 336 339 339 339 339 338 338 337 336 334 333 331 328 327 326 325
325 327 327 330 333 336 337 339 339 340 338 337 336 335 334 331 330 329 327 327 326 325
325 327 329 331 334 336 337 339 339 339 337 336 335 334 332 330 330 328 326 326 326 325
326 328 329 331 335 336 337 338 339 338 336 335 334 333 332 331 329 328 328 327 326 325
328 330 331 333 335 336 338 337 337 338 336 335 335 333 331 330 329 328 327 327 327 326
329 332 334 335 335 337 337 337 337 336 335 334 333 331 330 329 328 328 327 327 327 328
334 335 335 335 335 336 336 335 335 334 333 332 332 310 313 324 328 327 327 326 326 326
333 333 333 334 335 334 334 334 334 332 332 329 327 307 308 312 328 326 326 326 325 324
333 332 334 335 333 333 332 332 331 330 328 326 320 304 304 309 326 324 326 325 324 324
332 331 331 331 329 330 329 327 326 326 324 322 316 300 302 317 325 324 323 323 323 323
330 329 328 327 326 329 327 323 323 321 322 313 313 298 301 317 324 322 322 321 321 307
329 326 326 325 325 325 323 321 320 318 317 317 314 307 300 304 325 324 322 322 319 316
Wind_Speed
15 11 10 9 6 8 8 8 9 9 9 8 9 8 7 5 6 7 6 7 4 3
13 14 12 13 10 9 7 7 10 10 9 9 9 8 8 6 7 7 6 5 5 3
14 14 14 10 12 11 8 10 11 11 10 10 9 9 8 6 6 8 4 4 6 4
12 13 10 11 10 10 9 11 12 12 11 10 10 9 8 7 9 8 7 5 6 6
11 11 12 12 10 11 11 11 12 12 11 11 10 10 10 10 8 9 8 7 7 7
11 13 12 12 12 12 12 12 12 13 13 12 11 11 9 10 9 8 7 8 7 7
14 15 13 12 13 14 13 14 13 13 13 12 11 11 10 9 8 7 6 7 7 7
12 12 12 11 12 12 13 12 13 13 12 11 11 8 10 9 8 8 7 6 6 6
12 13 13 14 14 13 12 12 14 13 14 13 8 13 13 11 9 7 7 7 5 5
11 12 13 14 13 13 13 14 13 12 12 10 8 15 14 13 7 7 6 6 6 5
11 11 11 11 12 11 12 14 12 11 10 9 6 13 13 12 8 6 6 6 6 5
9 11 12 12 13 12 12 12 10 10 10 10 6 9 13 10 7 7 6 5 5 5
8 11 13 13 13 11 11 9 8 9 9 10 9 7 11 10 6 7 5 5 4 4
6 9 10 12 12 11 11 10 9 10 7 8 8 6 8 11 7 7 6 6 4 3
Wind_Direction
229 225 217 202 177 181 182 189 167 179 181 174 169 160 162 158 162 156 154 170 160 152
224 219 210 200 187 182 174 159 168 171 168 161 157 155 160 159 153 155 157 168 148 147
222 213 203 189 184 174 166 154 160 166 166 158 159 158 160 155 144 153 144 144 151 168
212 201 187 190 181 173 154 159 166 165 156 161 156 157 161 154 150 146 144 152 167 180
196 180 176 172 172 163 167 166 160 157 152 155 163 154 160 151 154 150 163 167 172 174
180 176 182 180 171 163 161 163 155 152 156 163 165 154 160 155 156 158 167 169 175 166
184 177 178 175 170 163 167 158 156 158 158 162 162 154 152 151 150 158 168 171 170 172
178 163 153 161 162 156 156 156 154 151 154 158 154 154 148 153 157 165 163 178 170 185
157 146 156 161 157 151 143 147 149 155 154 152 154 153 149 153 160 163 167 174 178 172
138 147 152 150 149 146 148 148 150 150 140 155 144 151 156 151 157 158 166 155 168 155
135 146 141 142 144 144 150 151 144 138 142 140 138 155 161 151 143 137 146 154 159 157
134 137 145 148 148 145 137 131 130 135 137 134 135 151 143 135 133 132 139 147 145 152
153 150 146 141 140 134 125 108 123 115 127 123 136 143 141 126 128 129 135 131 121 93
126 122 138 125 114 118 116 113 112 106 96 106 136 135 136 137 145 146 146 150 146 128